Weather in Liskeard

United Kingdom     50°27′12″N   4°27′53″W
temp.,
°C
wind,
m/s
gust,
m/s
humid.,
%
clouds,
%
prec.,
mm/h
press.,
hPa
HPBL,
m
6 may, thu
thu601:00+2ssw1182100 0.0 101014
04:00+3se1182100 0.1 100816
07:00+4ese0195100 1.4 100684
10:00+6nne248699 0.6 1006675
13:00+8nnw557570 1.1 10071118
16:00+9nnw77465 0.2 10091458
19:00+7nnw57625 0.2 10111151
22:00+1nnw34740 0.0 101453
7 may, fri
fri701:00+1nnw33802 0.0 101539
04:00+1nw22860 0.0 101613
07:00+3w11790 0.0 101714
10:00+9sw225734 0.0 10181031
13:00+10s545361 0.0 10181495
16:00+9sse565598 0.0 10161019
19:00+8se577091 0.0 1015726
22:00+7se51079100 0.1 1013519
8 may, sat
sat801:00+7se71495100 0.9 1009600
04:00+10sse81799100 6.4 1003728
07:00+11ssw111998100 14.8 1000905
10:00+11ssw101998100 2.9 1000824
13:00+12ssw101998100 4.4 1000878
16:00+12ssw101797100 0.1 999845
19:00+12ssw111897100 0.1 998986
22:00+11s101897100 0.1 997965
9 may, sun
sun901:00+11s101698100 0.3 995979
04:00+9ssw61294100 0.7 994493
07:00+9ssw71296100 0.8 994919
10:00+9s81392100 0.1 993871
13:00+12ssw11168357 0.8 9931292
16:00+12ssw10148232 0.5 9931213
19:00+10s9149485 1.4 993972
22:00+9ssw8139695 0.5 993725
10 may, mon
mon1001:00+9ssw7129398 0.9 994712
04:00+8sw8129099 0.1 995720
07:00+8sw7129144 0.1 998864
10:00+10ssw914715 0.1 9991414
13:00+11ssw11156912 0.3 10001619
16:00+11ssw1117723 0.4 9991694
19:00+9ssw11188195 0.6 10001477
22:00+8ssw8139298 0.2 1001801